Weather History for Punta Gorda, FL

Change the Weather History Date:

Wednesday, November 14, 2012

  Actual Average Record
Temperature  
Mean Temperature 71 °F -  
Max Temperature 82 °F 78 °F 87 °F (2008)
Min Temperature 60 °F 57 °F 50 °F (2006)
Cooling Degree Days 6    
Growing Degree Days 21 (Base 50)    
Moisture  
Dew Point 63 °F    
Average Humidity 83    
Maximum Humidity 100    
Minimum Humidity 53    
Precipitation  
Precipitation 0.01 in - - ()
Sea Level Pressure  
Sea Level Pressure 30.13 in    
Wind  
Wind Speed 5 mph (NNE)    
Max Wind Speed 13 mph    
Max Gust Speed -    
Visibility 7 miles    
Events Fog    
Averages and records for this station are not official NWS values.
T = Trace of Precipitation, MM = Missing Value Source: NWS Daily Summary

Daily Weather History Graph

Daily Weather History Graph

Search for Another Location

Airport:

Trip Planner

Search our weather history database for the weather conditions in past years. The results will help you decide how hot, cold, wet, or windy it might be!

Date:

Astronomy

Nov. 14, 2012 Rise Set
Actual Time 6:47 AM EST 5:37 PM EST
Civil Twilight 6:22 AM EST 6:01 PM EST
Nautical Twilight 5:54 AM EST 6:29 PM EST
Astronomical Twilight 5:27 AM EST 6:57 PM EST
Moon 7:30 AM EST (11/14) 6:30 PM EST (11/14)
Length of Visible Light 11h 39m
Length of Day
10h 50m
New Moon, 1% of the Moon is Illuminated
Nov 14
New Moon
Nov 20
First Quarter
Nov 28
Full
Dec 6
Last Quarter
Dec 13
New

Hourly Weather History & Observations

Time (EST) Temp. Heat Index Dew Point Humidity Pressure Visibility Wind Dir Wind Speed Gust Speed Precip Events Conditions
12:53 AM 63.0 °F - 61.0 °F 93% 30.13 in 10.0 mi NNE 4.6 mph - N/A   Clear
1:53 AM 63.0 °F - 61.0 °F 93% 30.12 in 8.0 mi NE 3.5 mph - N/A   Clear
2:53 AM 62.1 °F - 60.1 °F 93% 30.11 in 4.0 mi NE 4.6 mph - N/A   Clear
3:30 AM 62.6 °F - 60.8 °F 94% 30.11 in 1.8 mi NE 3.5 mph - N/A   Clear
3:53 AM 63.0 °F - 61.0 °F 93% 30.12 in 2.0 mi NNE 3.5 mph - N/A   Clear
4:05 AM 62.6 °F - 60.8 °F 94% 30.11 in 5.0 mi NNE 3.5 mph - N/A   Clear
4:29 AM 62.6 °F - 60.8 °F 94% 30.12 in 1.8 mi NE 3.5 mph - N/A   Clear
4:40 AM 62.6 °F - 60.8 °F 94% 30.12 in 0.5 mi NNE 3.5 mph - N/A Fog Fog
4:51 AM 62.6 °F - 60.8 °F 94% 30.13 in 1.5 mi North 3.5 mph - N/A   Clear
4:53 AM 62.1 °F - 60.1 °F 93% 30.13 in 1.8 mi North 3.5 mph - N/A   Clear
4:57 AM 62.6 °F - 60.8 °F 94% 30.13 in 3.0 mi North 3.5 mph - N/A   Clear
5:15 AM 60.8 °F - 59.0 °F 94% 30.12 in 1.8 mi NE 5.8 mph - N/A   Clear
5:27 AM 60.8 °F - 60.8 °F 100% 30.12 in 3.0 mi NNE 4.6 mph - N/A   Clear
5:53 AM 63.0 °F - 61.0 °F 93% 30.13 in 8.0 mi North 3.5 mph - N/A   Clear
6:53 AM 64.0 °F - 62.1 °F 93% 30.15 in 5.0 mi NNE 5.8 mph - N/A   Partly Cloudy
7:53 AM 64.9 °F - 63.0 °F 93% 30.17 in 6.0 mi NNE 5.8 mph - 0.01 in   Clear
8:53 AM 68.0 °F - 64.9 °F 90% 30.17 in 10.0 mi NE 9.2 mph - N/A   Clear
9:53 AM 71.1 °F - 66.0 °F 84% 30.18 in 10.0 mi NE 8.1 mph - N/A   Clear
10:53 AM 78.1 °F - 66.0 °F 66% 30.18 in 10.0 mi NNE 11.5 mph - N/A   Clear
11:53 AM 81.0 °F 83.0 °F 66.0 °F 60% 30.15 in 10.0 mi NE 10.4 mph - N/A   Clear
12:53 PM 82.0 °F 84.1 °F 66.0 °F 58% 30.13 in 10.0 mi NE 9.2 mph - N/A   Partly Cloudy
1:53 PM 82.0 °F 83.8 °F 64.9 °F 56% 30.11 in 10.0 mi ENE 8.1 mph - N/A   Scattered Clouds
2:53 PM 82.9 °F 84.4 °F 64.0 °F 53% 30.10 in 10.0 mi North 12.7 mph - N/A   Scattered Clouds
3:53 PM 82.0 °F 83.4 °F 64.0 °F 54% 30.09 in 10.0 mi North 9.2 mph - N/A   Unknown
4:53 PM 80.1 °F 81.5 °F 63.0 °F 56% 30.09 in 10.0 mi NNE 8.1 mph - N/A   Clear
5:53 PM 75.0 °F - 64.0 °F 69% 30.10 in 10.0 mi NE 5.8 mph - N/A   Mostly Cloudy
6:53 PM 73.9 °F - 64.0 °F 71% 30.12 in 10.0 mi ENE 6.9 mph - N/A   Mostly Cloudy
7:53 PM 71.1 °F - 64.0 °F 78% 30.14 in 10.0 mi Calm Calm - N/A   Partly Cloudy
8:53 PM 68.0 °F - 64.0 °F 87% 30.16 in 10.0 mi North 4.6 mph - N/A   Clear
9:53 PM 66.0 °F - 63.0 °F 90% 30.16 in 10.0 mi NE 5.8 mph - N/A   Clear
10:53 PM 66.0 °F - 63.0 °F 90% 30.16 in 10.0 mi NNE 5.8 mph - N/A   Clear
11:53 PM 66.0 °F - 63.0 °F 90% 30.14 in 10.0 mi NE 5.8 mph - N/A   Clear